Weather Service Report


132 
ASUS43 KLSX 250057
RWRMO 

WEATHER SUMMARY FOR MISSOURI
NATIONAL WEATHER SERVICE SPRINGFIELD MO
800 PM CDT WED AUG 24 2016

NOTE: "FAIR" INDICATES FEW OR NO CLOUDS BELOW 12,000 FEET WITH NO
       SIGNIFICANT WEATHER AND/OR OBSTRUCTIONS TO VISIBILITY.
       CURRENT SKY AND/OR WEATHER CONDITIONS ARE NOT AVAILABLE FOR
       CHILLICOTHE AND FARMINGTON.

MOZ001>031-035>038-043-044-053-054-250200-
...NORTHERN AND WESTERN MISSOURI...
  
CITY           SKY/WX    TMP DP  RH WIND       PRES   REMARKS
KANSAS CTY INT CLOUDY    79  69  71 NE6       29.96S                  
LEE'S SUMMIT   TSTM      79  71  76 NE9       29.96S                  
ST JOSEPH      LGT RAIN  77  74  90 N7        29.99R                  
     
$$
MOZ066>068-077>081-088>096-101>105-250200-
...SOUTHWEST MISSOURI...
  
CITY           SKY/WX    TMP DP  RH WIND       PRES   REMARKS
SPRINGFIELD    CLEAR     84  70  62 S13       30.02S                  
JOPLIN         CLEAR     86  66  51 S12       29.98S                  
               
$$
MOZ032>034-039>042-045>050-055>058-069>072-250200-
...CENTRAL MISSOURI...  
  
CITY           SKY/WX    TMP DP  RH WIND       PRES   REMARKS
COLUMBIA       NOT AVBL                                               
JEFFERSON CITY CLEAR     83  76  79 E3        29.97S HX  91           
ROLLA          CLEAR     80  75  84 S6        30.01F                  
SEDALIA        MOCLDY    84  76  76 SE3       29.97F HX  93           
               
$$
MOZ051-052-059>065-250200-
...EAST CENTRAL MISSOURI...
  
CITY           SKY/WX    TMP DP  RH WIND       PRES   REMARKS
ST LOUIS INTL  PTCLDY    89  72  56 S5        30.00S HX  96           
                   
$$
MOZ072>076-082>087-097>100-106>115-250200-
...SOUTH CENTRAL AND SOUTHEAST MISSOURI...
  
CITY           SKY/WX    TMP DP  RH WIND       PRES   REMARKS
CAPE GIRARDEAU CLEAR     82  75  79 S7        30.04R                  
POPLAR BLUFF   CLEAR     83  76  79 S7        30.05R HX  91           
WEST PLAINS    CLEAR     82  72  71 S6        30.09R                  
                                       
$$

Return to Home page


Western Regional Climate Center, wrcc@dri.edu